User: anonymous   Login
Location: Unspecified
(0.0000°N, 0.0000°E)
Time: 20:12:58
(UTC+00:00)
Language:

STARLINK-3959 - Orbit

View from above orbital plane
View from above orbital plane
View from above satellite
View from above satellite

Ground track
Ground track

The orbit is defined by the following mean orbital elements,

1 52564U          26145.33379944 +.00000000 +00000-0 +19325-4 0 00009
2 52564  53.2121 150.0608 0001155  60.5620 299.5487 15.08836476    01
Epoch (UTC): 25 May 2026 08:00:40
Eccentricity: 0.0001155
inclination: 53.2121°
perigee height: 539 km
apogee height: 541 km
right ascension of ascending node: 150.0608°
argument of perigee: 60.5620°
revolutions per day: 15.08836476
mean anomaly at epoch: 299.5487°

The dashed part of the orbit path shows where the satellite is in the earth's shadow,  

DLR